Previsão horária em Centenário do Sul

Hoje, 30 Julho, Sexta-feira

Tempo Temperatura Precipitação Vento Pressão Humidade
00:00 +6°C° 0 mm 1 m/s 728 mmHg 42%
01:00 +4°C° 0 mm 2 m/s 728 mmHg 43%
02:00 +4°C° 0 mm 2 m/s 727 mmHg 43%
03:00 +4°C° 0 mm 2 m/s 727 mmHg 44%
04:00 +4°C° 0 mm 2 m/s 727 mmHg 46%
05:00 +3°C° 0 mm 2 m/s 727 mmHg 47%
06:00 +3°C° 0 mm 2 m/s 727 mmHg 49%
07:00 +4°C° 0 mm 3 m/s 728 mmHg 45%
08:00 +7°C° 0 mm 3 m/s 729 mmHg 42%
09:00 +7°C° 0 mm 4 m/s 730 mmHg 38%
10:00 +11°C° 0 mm 4 m/s 730 mmHg 33%
11:00 +13°C° 0 mm 4 m/s 729 mmHg 28%
12:00 +15°C° 0 mm 4 m/s 729 mmHg 23%
13:00 +17°C° 0 mm 4 m/s 729 mmHg 22%
14:00 +18°C° 0 mm 4 m/s 728 mmHg 20%
15:00 +20°C° 0 mm 3 m/s 727 mmHg 18%
16:00 +18°C° 0 mm 3 m/s 727 mmHg 22%
17:00 +16°C° 0 mm 2 m/s 727 mmHg 25%
18:00 +14°C° 0 mm 2 m/s 727 mmHg 29%
19:00 +13°C° 0 mm 2 m/s 727 mmHg 32%
20:00 +11°C° 0 mm 3 m/s 728 mmHg 35%
21:00 +10°C° 0 mm 3 m/s 728 mmHg 38%
22:00 +10°C° 0 mm 4 m/s 728 mmHg 43%
23:00 +9°C° 0 mm 5 m/s 729 mmHg 48%

Amanhã, 31 Julho, Sábado

Tempo Temperatura Precipitação Vento Pressão Humidade
00:00 +9°C° 0 mm 5 m/s 729 mmHg 54%
01:00 +8°C° 0 mm 5 m/s 729 mmHg 60%
02:00 +7°C° 0 mm 6 m/s 728 mmHg 66%
03:00 +7°C° 0 mm 6 m/s 728 mmHg 72%
04:00 +7°C° 0 mm 6 m/s 728 mmHg 75%
05:00 +5°C° 0 mm 6 m/s 728 mmHg 78%
06:00 +5°C° 0 mm 6 m/s 728 mmHg 81%
07:00 +7°C° 0 mm 6 m/s 728 mmHg 75%
08:00 +9°C° 0 mm 7 m/s 729 mmHg 69%
09:00 +10°C° 0 mm 7 m/s 729 mmHg 63%
10:00 +12°C° 0 mm 7 m/s 729 mmHg 54%
11:00 +16°C° 0 mm 7 m/s 729 mmHg 46%
12:00 +18°C° 0 mm 7 m/s 730 mmHg 37%
13:00 +20°C° 0 mm 6 m/s 729 mmHg 34%
14:00 +22°C° 0 mm 6 m/s 728 mmHg 31%
15:00 +23°C° 0 mm 5 m/s 728 mmHg 27%
16:00 +21°C° 0 mm 4 m/s 728 mmHg 30%
17:00 +20°C° 0 mm 4 m/s 727 mmHg 33%
18:00 +19°C° 0 mm 3 m/s 727 mmHg 36%
19:00 +18°C° 0 mm 4 m/s 728 mmHg 39%
20:00 +17°C° 0 mm 5 m/s 728 mmHg 41%
21:00 +16°C° 0 mm 6 m/s 728 mmHg 43%
22:00 +15°C° 0 mm 6 m/s 729 mmHg 50%
23:00 +14°C° 0 mm 6 m/s 729 mmHg 56%

Depois de amanhã, 1 Agosto, Domingo

Tempo Temperatura Precipitação Vento Pressão Humidade
00:00 +14°C° 0 mm 6 m/s 729 mmHg 62%
01:00 +13°C° 0 mm 6 m/s 729 mmHg 64%
02:00 +13°C° 0 mm 6 m/s 728 mmHg 67%
03:00 +11°C° 0 mm 6 m/s 728 mmHg 69%
04:00 +11°C° 0 mm 6 m/s 728 mmHg 70%
05:00 +11°C° 0 mm 6 m/s 728 mmHg 70%
06:00 +11°C° 0 mm 6 m/s 728 mmHg 70%
07:00 +13°C° 0 mm 6 m/s 729 mmHg 67%
08:00 +14°C° 0 mm 6 m/s 729 mmHg 64%
09:00 +15°C° 0 mm 6 m/s 730 mmHg 61%
10:00 +17°C° 0 mm 6 m/s 730 mmHg 54%
11:00 +21°C° 0 mm 5 m/s 730 mmHg 47%
12:00 +23°C° 0 mm 4 m/s 731 mmHg 40%
13:00 +25°C° 0 mm 4 m/s 730 mmHg 38%
14:00 +26°C° 0 mm 3 m/s 729 mmHg 35%
15:00 +27°C° 0 mm 3 m/s 729 mmHg 33%
16:00 +25°C° 0 mm 3 m/s 729 mmHg 37%
17:00 +24°C° 0 mm 3 m/s 728 mmHg 40%
18:00 +23°C° 0 mm 2 m/s 728 mmHg 44%
19:00 +21°C° 0 mm 3 m/s 729 mmHg 47%
20:00 +20°C° 0 mm 3 m/s 729 mmHg 49%
21:00 +19°C° 0 mm 4 m/s 729 mmHg 52%
22:00 +18°C° 0 mm 4 m/s 729 mmHg 56%
23:00 +18°C° 0 mm 4 m/s 729 mmHg 59%

2 Agosto, Segunda-feira

Tempo Temperatura Precipitação Vento Pressão Humidade
00:00 +16°C° 0 mm 5 m/s 729 mmHg 63%
01:00 +15°C° 0 mm 4 m/s 729 mmHg 66%
02:00 +15°C° 0 mm 4 m/s 728 mmHg 69%
03:00 +15°C° 0 mm 4 m/s 728 mmHg 72%
04:00 +16°C° 0 mm 3 m/s 728 mmHg 73%
05:00 +14°C° 0 mm 3 m/s 728 mmHg 74%
06:00 +15°C° 0 mm 2 m/s 728 mmHg 75%
07:00 +16°C° 0 mm 3 m/s 729 mmHg 71%
08:00 +17°C° 0 mm 3 m/s 729 mmHg 67%
09:00 +18°C° 0 mm 3 m/s 729 mmHg 63%
10:00 +20°C° 0 mm 3 m/s 729 mmHg 54%
11:00 +24°C° 0 mm 3 m/s 729 mmHg 46%
12:00 +26°C° 0 mm 2 m/s 729 mmHg 38%
13:00 +27°C° 0 mm 2 m/s 729 mmHg 35%
14:00 +28°C° 0 mm 1 m/s 728 mmHg 33%
15:00 +29°C° 0 mm 1 m/s 727 mmHg 30%
16:00 +27°C° 0 mm 1 m/s 727 mmHg 34%
17:00 +26°C° 0 mm 1 m/s 727 mmHg 37%
18:00 +24°C° 0 mm 2 m/s 727 mmHg 40%
19:00 +21°C° 0 mm 2 m/s 727 mmHg 45%
20:00 +20°C° 0 mm 2 m/s 727 mmHg 49%
21:00 +18°C° 0 mm 2 m/s 727 mmHg 53%
22:00 +18°C° 0 mm 2 m/s 727 mmHg 56%
23:00 +17°C° 0 mm 2 m/s 727 mmHg 60%

3 Agosto, Terça-feira

Tempo Temperatura Precipitação Vento Pressão Humidade
00:00 +16°C° 0 mm 2 m/s 726 mmHg 64%
01:00 +16°C° 0 mm 2 m/s 726 mmHg 66%
02:00 +15°C° 0 mm 2 m/s 726 mmHg 68%
03:00 +15°C° 0 mm 2 m/s 726 mmHg 70%
04:00 +14°C° 0 mm 2 m/s 726 mmHg 74%
05:00 +13°C° 0 mm 3 m/s 726 mmHg 78%
06:00 +12°C° 0 mm 3 m/s 726 mmHg 83%
07:00 +14°C° 0 mm 4 m/s 726 mmHg 77%
08:00 +15°C° 0 mm 5 m/s 727 mmHg 72%
09:00 +17°C° 0 mm 5 m/s 728 mmHg 67%
10:00 +20°C° 0 mm 5 m/s 728 mmHg 58%
11:00 +23°C° 0 mm 4 m/s 728 mmHg 49%
12:00 +26°C° 0 mm 3 m/s 728 mmHg 40%
13:00 +27°C° 0 mm 3 m/s 727 mmHg 36%
14:00 +28°C° 0 mm 2 m/s 726 mmHg 32%
15:00 +29°C° 0 mm 1 m/s 726 mmHg 27%
16:00 +27°C° 0 mm 1 m/s 725 mmHg 30%
17:00 +25°C° 0 mm 1 m/s 725 mmHg 33%
18:00 +23°C° 0 mm 1 m/s 725 mmHg 36%
19:00 +21°C° 0 mm 2 m/s 725 mmHg 39%
20:00 +19°C° 0 mm 2 m/s 726 mmHg 42%
21:00 +18°C° 0 mm 3 m/s 726 mmHg 45%
22:00 +17°C° 0 mm 4 m/s 726 mmHg 45%
23:00 +16°C° 0 mm 5 m/s 726 mmHg 45%

4 Agosto, Quarta-feira

Tempo Temperatura Precipitação Vento Pressão Humidade
00:00 +16°C° 0 mm 6 m/s 726 mmHg 46%
01:00 +15°C° 0 mm 6 m/s 726 mmHg 52%
02:00 +14°C° 0 mm 6 m/s 726 mmHg 58%
03:00 +13°C° 0 mm 6 m/s 726 mmHg 64%
04:00 +13°C° 0 mm 6 m/s 726 mmHg 67%
05:00 +11°C° 0 mm 6 m/s 726 mmHg 71%
06:00 +12°C° 0 mm 5 m/s 726 mmHg 74%
07:00 +13°C° 0 mm 6 m/s 727 mmHg 69%
08:00 +14°C° 0 mm 6 m/s 727 mmHg 64%
09:00 +16°C° 0 mm 7 m/s 728 mmHg 59%
10:00 +19°C° 0 mm 6 m/s 728 mmHg 49%
11:00 +21°C° 0 mm 6 m/s 728 mmHg 40%
12:00 +24°C° 0 mm 6 m/s 728 mmHg 30%
13:00 +26°C° 0 mm 5 m/s 728 mmHg 27%
14:00 +27°C° 0 mm 4 m/s 727 mmHg 24%
15:00 +27°C° 0 mm 4 m/s 726 mmHg 21%
16:00 +26°C° 0 mm 4 m/s 726 mmHg 25%
17:00 +24°C° 0 mm 3 m/s 726 mmHg 29%
18:00 +21°C° 0 mm 3 m/s 726 mmHg 32%
19:00 +20°C° 0 mm 3 m/s 727 mmHg 37%
20:00 +18°C° 0 mm 4 m/s 727 mmHg 41%
21:00 +17°C° 0 mm 4 m/s 727 mmHg 46%
22:00 +16°C° 0 mm 5 m/s 728 mmHg 51%
23:00 +15°C° 0 mm 5 m/s 728 mmHg 57%
Mostrar mais

Necessitamos do seu Consentimento

A Meteoprog e os seus Fornecedores de Serviços podem armazenar e aceder a dados pessoais como cookies, identificadores do dispositivo ou outras tecnologias semelhantes existentes no seu dispositivo e processar estes dados para personalizar conteúdos e anúncios, assim como funcionalidades nas redes sociais e análise de tráfego.

  • Armazenar e/ou aceder a informações no seu dispositivo

    Os cookies, identificadores do dispositivo ou outras informações podem ser armazenados ou acedidos no seu dispositivo, para os fins acima indicados.

  • Anúncios e conteúdos personalizados, medição de anúncios e conteúdos, dados sobre o público-alvo e desenvolvimento de produtos

    Os anúncios e os conteúdos podem ser personalizados com base num perfil. Podem ser adicionados dados adicionais para uma maior personalização dos anúncios e dos conteúdos. A eficácia dos anúncios e dos conteúdos pode ser medida. Podem ser obtidas informações sobre o público que visualizou os anúncios e os conteúdos. Estes dados podem ser usados para desenvolver ou melhorar sistemas, softwares ou a experiência do utilizador.

Ao clicar em "Eu concordo”, permitirá o uso de cookies, identificadores do dispositivo e web beacons mencionados ou outras tecnologias semelhantes. As configurações do navegador do seu dispositivo podem ser alteradas.

Para certos fins, podem ser invocados interesses legítimos ao invés de consentimento. Pode ler mais informação sobre este assunto na nossa Política de Privacidade e Cookies.